Location: *
(51.0333°S, 178.4667°E)
Time: 20:43:38
(UTC+00:00)

Cosmos 1553 Rocket - Pass Details

Date: 15 November 2019
Orbit: 941 x 1008 km, 82.9° (Epoch: 07 December)

Event Time Altitude Azimuth Distance (km) Brightness Sun altitude
Exits shadow 11:17:56 24° 326° (NNW) 1,959 5.2 -20.1°
Maximum altitude 11:21:51 58° 255° (WSW) 1,176 4.5 -20.2°
Drops below altitude 10° 11:28:17 10° 176° (S) 2,822 7.6 -20.3°
Sets 11:30:54 0° 171° (S) 3,775 8.5 -20.4°
